Location: G�ndlingen
(48.0142°N, 7.6396°E)
Time: 17:40:32
(UTC+00:00)

SPOT 5 - Pass Details

Date: 05 July 2020
Orbit: 622 x 815 km, 98.3° (Epoch: 13 August)

Event Time Altitude Azimuth Distance (km) Brightness Sun altitude
Exits shadow 21:13:54 15° 172° (S) 1,960 4.6 -12.6°
Maximum altitude 21:18:06 76° 257° (WSW) 765 3.0 -13.0°
Drops below altitude 10° 21:22:56 10° 343° (NNW) 2,190 6.7 -13.4°
Sets 21:25:08 0° 345° (NNW) 3,083 7.7 -13.6°
